#timestamp,LO_Frequency,Hit,StdDev 
1654873215.1,286046998.9,N
1654873235.9,286046998.5,N
1654873255.7,286046996.6,N
1654873275.5,286046997.0,N
1654873295.4,286046998.3,N
1654873315.2,286046999.1,N
1654873335.1,286046999.5,N
1654873336.0,286046999.5,N
1654873355.8,286046998.9,N
1654873375.6,286047001.1,N
1654873395.5,286046998.1,N
1654873415.3,286046998.3,N
1654873435.2,286046998.7,N
1654873455.9,286046998.6,N
1654873475.7,286046999.5,N
1654873495.6,286046996.9,N
1654873515.4,286046997.0,N
1654873535.2,286046999.0,N
1654873555.1,286046999.1,N
1654873556.0,286046999.1,N
1654873575.8,286046999.1,N
1654873595.7,286046998.1,N
1654873615.5,286047000.8,N
1654873635.3,286047001.1,N
1654873655.2,286046998.2,N
1654873675.0,286047000.8,N
1654873675.9,286047000.8,N
1654873695.8,286046998.2,N
1654873715.6,286046998.4,N
1654873735.4,286046997.0,N
1654873755.3,286046997.7,N
1654873775.1,286046999.6,N
1654873795.8,286046999.3,N
1654873815.7,286046996.7,N
1654873835.5,286046996.5,N
1654873855.4,286046999.5,N
1654873875.2,286046997.0,N
1654873895.0,286046997.4,N
1654873895.9,286046997.4,N
1654873915.8,286046997.7,N
1654873935.6,286046995.3,Y
1654873955.5,286046998.7,P
1654873975.3,286047000.8,P
1654873995.1,286047001.0,N
1654874015.9,286047001.0,N
1654874035.7,286046998.5,N
1654874055.5,286047000.8,N
1654874075.4,286046998.6,N
1654874095.2,286046999.2,N
1654874115.1,286046999.2,N
1654874116.0,286046999.2,N
1654874135.8,286046999.0,N
1654874155.6,286046998.4,N
1654874175.5,286047000.9,N
1654874195.3,286047000.6,N
1654874215.1,286047000.3,N
1654874235.9,286047000.6,N
1654874255.7,286047000.0,N
1654874275.6,286046999.9,N
1654874295.4,286047000.2,N
1654874315.2,286047000.1,N
1654874335.1,286046999.8,N
1654874336.0,286046999.8,N
1654874355.8,286047000.2,N
1654874375.7,286046998.6,N
1654874395.5,286046998.2,N
1654874415.3,286046998.7,N
1654874435.2,286046999.0,N
1654874455.0,286046996.5,Y
1654874455.9,286046996.5,P
1654874475.8,286046999.6,N
1654874495.6,286046997.3,N
1654874515.4,286046997.3,N
1654874535.3,286046996.9,N
1654874555.1,286046998.2,N
1654874575.8,286046998.4,N
1654874595.7,286046998.7,N
1654874615.5,286047000.9,N
1654874635.4,286046998.7,N
1654874655.2,286047000.7,N
1654874675.0,286047001.1,N
1654874675.9,286047001.1,N
1654874695.8,286047000.8,N
1654874715.6,286047000.5,N
1654874735.5,286046999.9,N
1654874755.3,286046999.7,N
1654874775.1,286046999.7,N
1654874795.9,286047000.2,N
1654874815.7,286047000.2,N
1654874835.5,286047002.3,N
1654874855.4,286047002.5,N
1654874875.2,286047002.1,N
1654874895.1,286047002.1,N
1654874896.0,286047002.1,N
1654874915.8,286047000.2,N
1654874935.6,286047002.7,N
1654874955.5,286047002.1,N
1654874975.3,286047002.4,N
1654874995.1,286047002.1,N
1654875015.9,286047002.0,N
1654875035.7,286047000.1,N
1654875055.6,286047002.6,N
1654875075.4,286047001.9,N
1654875095.2,286047001.8,N
1654875115.1,286047001.9,N
1654875116.0,286047001.9,N
1654875135.8,286047001.5,N
1654875155.6,286047002.5,N
1654875175.5,286047001.5,N
1654875195.3,286047002.7,N
1654875215.2,286047001.7,N
1654875235.9,286047002.1,N
1654875255.7,286047002.1,N
1654875275.6,286047004.4,Y
1654875295.4,286047001.0,P
1654875315.3,286047000.6,N
1654875335.1,286047000.9,N
1654875336.0,286047000.9,N
1654875355.8,286047001.1,Y
1654875375.7,286046998.7,P
1654875395.5,286046998.1,N
1654875415.4,286047001.1,N
1654875435.2,286047001.2,N
1654875455.0,286046998.5,N
1654875455.9,286046998.5,N
1654875475.8,286046998.5,N
1654875495.6,286047000.9,N
1654875515.5,286047005.8,Y
1654875535.3,286047005.3,P
1654875555.1,286047003.6,N
1654875575.9,286047002.1,N
1654875595.7,286047002.4,N
1654875615.5,286046999.8,N
1654875635.4,286047002.6,N
1654875655.2,286047002.6,N
1654875675.1,286047001.6,N
1654875676.0,286047001.6,N
1654875695.8,286047002.0,N
1654875715.7,286047001.8,N
1654875735.5,286047002.2,N
1654875755.3,286046999.8,N
1654875775.2,286047002.7,N
1654875795.0,286046999.7,N
1654875795.9,286046999.7,N
1654875815.7,286047002.7,N
1654875835.6,286047000.1,N
1654875855.4,286047002.4,N
1654875875.3,286047000.0,N
1654875895.1,286046999.8,N
1654875915.8,286047002.7,N
1654875935.7,286047000.0,N
1654875955.5,286047002.5,N
1654875975.4,286047002.4,N
1654875995.2,286047002.7,N
1654876015.0,286047002.1,N
1654876015.9,286047002.1,N
1654876035.8,286046999.7,N
1654876055.6,286047002.8,N
1654876075.5,286047000.9,N
1654876095.3,286047000.2,N
1654876115.1,286047001.1,N
1654876135.9,286047000.9,N
1654876155.7,286046999.7,N
1654876175.5,286046999.9,N
1654876195.4,286047000.5,N
1654876215.2,286046999.9,N
1654876235.1,286046999.9,N
1654876236.0,286046999.9,N
1654876255.8,286047002.8,N
1654876275.6,286047002.5,N
1654876295.5,286047001.9,N
1654876315.3,286047001.5,N
1654876335.1,286047002.1,N
1654876355.9,286047004.4,Y
1654876375.7,286047002.3,P
1654876395.6,286047002.0,P
1654876415.4,286047000.9,N
1654876435.2,286046999.8,N
1654876455.1,286047000.3,N
1654876456.0,286047000.3,N
1654876475.8,286047000.2,N
1654876495.7,286046999.9,N
1654876515.5,286047000.0,N
1654876535.3,286047000.7,N
1654876555.2,286047000.2,N
1654876575.0,286047000.4,N
1654876575.9,286047000.4,N
1654876595.7,286047000.0,N
1654876615.6,286047000.7,N
1654876635.4,286046998.1,N
1654876655.3,286046998.2,N
1654876675.1,286046999.9,N
1654876676.0,286046999.9,N
1654876695.8,286047000.9,N
1654876715.7,286047001.1,N
1654876735.5,286047001.0,N
1654876755.3,286046998.5,N
1654876775.2,286047000.9,N
1654876795.0,286047000.5,N
1654876795.9,286047000.5,N
